�������l�o���
Date,Time,MP-1(��Sv/h),MP-2(��Sv/h),MP-3(��Sv/h),MP-4(��Sv/h),MP-5(��Sv/h),MP-6(��Sv/h),MP-7(��Sv/h),MP-8(��Sv/h),����,����(m/s),���J
2020/08/11,00:00,0.684,0.986,0.617,1.177,0.856,0.396,0.682,0.638,�쐼,2.2,��
2020/08/11,00:10,0.685,0.986,0.617,1.179,0.859,0.399,0.681,0.638,��쐼,2.6,��
2020/08/11,00:20,0.683,0.986,0.617,1.181,0.856,0.396,0.682,0.639,��,2.3,��
2020/08/11,00:30,0.681,0.985,0.617,1.178,0.857,0.397,0.681,0.640,��쐼,1.7,��
2020/08/11,00:40,0.683,0.983,0.616,1.179,0.859,0.397,0.680,0.638,��쐼,1.4,��
2020/08/11,00:50,0.681,0.984,0.617,1.178,0.858,0.398,0.681,0.638,�쐼,1.2,��
2020/08/11,01:00,0.683,0.986,0.615,1.180,0.859,0.397,0.679,0.637,�쐼,1.1,��
2020/08/11,01:10,0.683,0.984,0.616,1.179,0.859,0.397,0.682,0.640,��쐼,1.5,��
2020/08/11,01:20,0.682,0.983,0.618,1.178,0.857,0.397,0.680,0.639,��쐼,1.5,��
2020/08/11,01:30,0.682,0.984,0.616,1.182,0.857,0.397,0.681,0.640,��쐼,1.7,��
2020/08/11,01:40,0.684,0.982,0.616,1.182,0.860,0.398,0.682,0.638,�쐼,2.6,��
2020/08/11,01:50,0.683,0.983,0.619,1.182,0.858,0.397,0.679,0.642,���쐼,2.8,��
2020/08/11,02:00,0.681,0.983,0.616,1.180,0.858,0.398,0.681,0.641,���쐼,1.5,��
2020/08/11,02:10,0.684,0.985,0.616,1.180,0.856,0.396,0.680,0.638,��,0.9,��
2020/08/11,02:20,0.683,0.984,0.616,1.179,0.858,0.398,0.682,0.640,���k��,1.1,��
2020/08/11,02:30,0.683,0.986,0.616,1.179,0.859,0.396,0.681,0.639,�k,1.5,��
2020/08/11,02:40,0.683,0.984,0.617,1.180,0.857,0.396,0.680,0.640,�k�k��,1.5,��
2020/08/11,02:50,0.684,0.983,0.620,1.179,0.858,0.397,0.681,0.639,�k�k��,2.3,��
2020/08/11,03:00,0.682,0.984,0.617,1.181,0.858,0.398,0.682,0.639,�k,1.7,��
2020/08/11,03:10,0.685,0.984,0.619,1.180,0.857,0.396,0.682,0.639,�k��,2.0,��
2020/08/11,03:20,0.683,0.984,0.618,1.180,0.856,0.395,0.682,0.639,�k��,2.0,��
2020/08/11,03:30,0.684,0.984,0.617,1.183,0.857,0.397,0.680,0.640,�k��,2.3,��
2020/08/11,03:40,0.682,0.985,0.617,1.180,0.859,0.398,0.681,0.639,�k�k��,2.6,��
2020/08/11,03:50,0.683,0.981,0.618,1.181,0.859,0.397,0.680,0.639,�k�k��,2.9,��
2020/08/11,04:00,0.682,0.983,0.615,1.180,0.857,0.397,0.681,0.640,�k,1.7,��
2020/08/11,04:10,0.682,0.984,0.617,1.180,0.858,0.396,0.682,0.640,�k�k��,0.6,��
2020/08/11,04:20,0.682,0.984,0.618,1.183,0.858,0.396,0.681,0.638,-,CALM,��
2020/08/11,04:30,0.683,0.983,0.617,1.181,0.857,0.398,0.680,0.640,�k��,0.6,��
2020/08/11,04:40,0.682,0.982,0.617,1.184,0.856,0.396,0.683,0.638,�k�k��,1.2,��
2020/08/11,04:50,0.682,0.985,0.616,1.182,0.857,0.398,0.680,0.640,�k,0.9,��
2020/08/11,05:00,0.682,0.981,0.618,1.180,0.859,0.398,0.680,0.638,�k�k��,1.7,��
2020/08/11,05:10,0.683,0.981,0.614,1.178,0.857,0.398,0.679,0.640,�k,2.8,��
2020/08/11,05:20,0.681,0.979,0.615,1.178,0.858,0.397,0.680,0.638,�k,2.0,��
2020/08/11,05:30,0.682,0.981,0.617,1.180,0.857,0.397,0.681,0.639,�k,1.5,��
2020/08/11,05:40,0.682,0.982,0.615,1.179,0.856,0.396,0.681,0.639,�k�k��,1.2,��
2020/08/11,05:50,0.682,0.981,0.614,1.179,0.858,0.398,0.679,0.638,�k�k��,1.2,��
2020/08/11,06:00,0.682,0.982,0.616,1.179,0.856,0.397,0.680,0.639,�k,1.4,��
2020/08/11,06:10,0.678,0.981,0.614,1.179,0.857,0.397,0.680,0.639,�k,2.0,��
2020/08/11,06:20,0.683,0.982,0.615,1.181,0.858,0.397,0.681,0.639,�k��,1.4,��
2020/08/11,06:30,0.683,0.982,0.617,1.179,0.856,0.396,0.681,0.639,�k,0.6,��
2020/08/11,06:40,0.681,0.980,0.615,1.181,0.853,0.396,0.680,0.640,�k�k��,1.7,��
2020/08/11,06:50,0.683,0.983,0.616,1.178,0.857,0.398,0.683,0.640,�k,1.7,��
2020/08/11,07:00,0.683,0.981,0.618,1.179,0.857,0.397,0.682,0.639,�k�k��,1.7,��
2020/08/11,07:10,0.682,0.979,0.617,1.180,0.857,0.396,0.680,0.639,�k,1.4,��
2020/08/11,07:20,0.680,0.982,0.614,1.178,0.856,0.397,0.681,0.639,�k�k��,2.0,��
2020/08/11,07:30,0.683,0.981,0.615,1.177,0.854,0.396,0.680,0.639,�k�k��,2.0,��
2020/08/11,07:40,0.680,0.976,0.614,1.179,0.854,0.395,0.681,0.640,�k,1.2,��
2020/08/11,07:50,0.681,0.979,0.616,1.180,0.856,0.397,0.681,0.638,���k��,1.7,��
2020/08/11,08:00,0.681,0.981,0.614,1.179,0.853,0.396,0.681,0.640,���k��,1.7,��
2020/08/11,08:10,0.680,0.981,0.613,1.178,0.854,0.396,0.681,0.639,���쓌,1.7,��
2020/08/11,08:20,0.679,0.981,0.615,1.179,0.856,0.396,0.682,0.639,���쓌,1.4,��
2020/08/11,08:30,0.678,0.980,0.614,1.180,0.856,0.395,0.681,0.637,�k��,0.9,��
2020/08/11,08:40,0.681,0.981,0.615,1.178,0.856,0.396,0.682,0.637,�쓌,1.5,��
2020/08/11,08:50,0.681,0.979,0.615,1.178,0.856,0.395,0.681,0.637,�쓌,1.7,��
2020/08/11,09:00,0.680,0.980,0.612,1.179,0.857,0.395,0.682,0.639,��쓌,1.7,��
2020/08/11,09:10,0.682,0.980,0.615,1.176,0.857,0.397,0.681,0.637,�쓌,1.2,��
2020/08/11,09:20,0.683,0.981,0.616,1.180,0.856,0.396,0.683,0.638,��,1.7,��
2020/08/11,09:30,0.684,0.982,0.614,1.179,0.858,0.397,0.683,0.639,��,0.8,��
2020/08/11,09:40,0.683,0.984,0.615,1.178,0.855,0.395,0.682,0.639,-,CALM,��
2020/08/11,09:50,0.683,0.983,0.617,1.180,0.857,0.397,0.683,0.638,�쓌,0.9,��
2020/08/11,10:00,0.684,0.983,0.615,1.181,0.859,0.398,0.682,0.638,��,1.1,��
2020/08/11,10:10,0.686,0.985,0.617,1.181,0.859,0.397,0.681,0.640,�k��,1.2,��
2020/08/11,10:20,0.686,0.985,0.618,1.181,0.860,0.397,0.681,0.637,���k��,1.5,��
2020/08/11,10:30,0.685,0.987,0.617,1.181,0.861,0.396,0.683,0.639,�k�k��,2.2,��
2020/08/11,10:40,0.683,0.988,0.619,1.181,0.861,0.397,0.681,0.639,���k��,2.0,��
2020/08/11,10:50,0.682,0.989,0.618,1.179,0.860,0.396,0.682,0.639,��,2.3,��
2020/08/11,11:00,0.685,0.990,0.617,1.185,0.861,0.396,0.681,0.637,�쓌,2.3,��
2020/08/11,11:10,0.685,0.991,0.617,1.182,0.864,0.396,0.683,0.639,�쓌,1.5,��
2020/08/11,11:20,0.683,0.987,0.617,1.183,0.865,0.395,0.680,0.639,��쓌,1.7,��
2020/08/11,11:30,0.684,0.989,0.618,1.177,0.861,0.395,0.682,0.637,�쓌,1.5,��
2020/08/11,11:40,0.684,0.989,0.618,1.180,0.862,0.396,0.681,0.641,���쓌,2.0,��
2020/08/11,11:50,0.684,0.989,0.617,1.180,0.863,0.395,0.683,0.639,�쓌,2.6,��
2020/08/11,12:00,0.683,0.991,0.616,1.182,0.864,0.396,0.682,0.636,�쓌,1.2,��
2020/08/11,12:10,0.683,0.990,0.617,1.181,0.864,0.395,0.682,0.640,��쓌,1.7,��
2020/08/11,12:20,0.684,0.988,0.623,1.182,0.865,0.396,0.681,0.640,��쓌,2.8,��
2020/08/11,12:30,0.684,0.988,0.616,1.182,0.865,0.395,0.680,0.640,���쓌,1.1,��
2020/08/11,12:40,0.683,0.989,0.617,1.181,0.864,0.396,0.682,0.638,�쓌,1.2,��
2020/08/11,12:50,0.683,0.988,0.618,1.180,0.866,0.394,0.681,0.639,��쓌,2.0,��
2020/08/11,13:00,0.684,0.987,0.617,1.182,0.865,0.395,0.681,0.639,��,3.7,��
2020/08/11,13:10,0.684,0.990,0.620,1.184,0.866,0.397,0.682,0.640,��,3.2,��
2020/08/11,13:20,0.686,0.987,0.619,1.182,0.865,0.396,0.682,0.638,��,3.6,��
2020/08/11,13:30,0.685,0.991,0.618,1.182,0.866,0.396,0.682,0.639,��,3.6,��
2020/08/11,13:40,0.687,0.988,0.619,1.183,0.867,0.395,0.683,0.638,��,3.0,��
2020/08/11,13:50,0.685,0.989,0.619,1.182,0.867,0.396,0.685,0.640,��쐼,2.3,��
2020/08/11,14:00,0.686,0.989,0.620,1.183,0.868,0.397,0.685,0.639,��,1.5,��
2020/08/11,14:10,0.685,0.991,0.620,1.185,0.866,0.397,0.684,0.640,��,1.5,��
2020/08/11,14:20,0.685,0.991,0.620,1.184,0.867,0.396,0.686,0.641,��,1.7,��
2020/08/11,14:30,0.688,0.993,0.620,1.185,0.866,0.399,0.685,0.641,��쓌,2.0,��
2020/08/11,14:40,0.687,0.992,0.621,1.182,0.871,0.397,0.685,0.642,��,1.7,��
2020/08/11,14:50,0.689,0.992,0.622,1.183,0.869,0.398,0.687,0.642,�쐼,1.1,��
2020/08/11,15:00,0.686,0.990,0.622,1.184,0.869,0.400,0.685,0.642,��,1.5,��
2020/08/11,15:10,0.687,0.992,0.621,1.185,0.869,0.398,0.685,0.641,��,1.2,��
2020/08/11,15:20,0.688,0.992,0.624,1.182,0.872,0.400,0.687,0.639,��쓌,2.0,��
2020/08/11,15:30,0.689,0.990,0.622,1.183,0.869,0.397,0.686,0.640,��,1.9,��
2020/08/11,15:40,0.690,0.991,0.622,1.186,0.868,0.399,0.686,0.640,��,2.2,��
2020/08/11,15:50,0.691,0.992,0.623,1.183,0.869,0.398,0.684,0.638,��쓌,1.7,��
2020/08/11,16:00,0.689,0.994,0.623,1.185,0.872,0.398,0.685,0.642,��쓌,1.2,��
2020/08/11,16:10,0.692,0.991,0.623,1.184,0.870,0.400,0.687,0.641,��,2.3,��
2020/08/11,16:20,0.690,0.994,0.623,1.189,0.868,0.399,0.685,0.641,��,2.5,��
2020/08/11,16:30,0.690,0.993,0.622,1.188,0.869,0.399,0.684,0.641,��,2.3,��
2020/08/11,16:40,0.690,0.992,0.623,1.187,0.870,0.398,0.684,0.639,��쓌,2.3,��
2020/08/11,16:50,0.690,0.993,0.622,1.187,0.871,0.399,0.685,0.640,��,2.3,��
2020/08/11,17:00,0.691,0.990,0.624,1.190,0.869,0.398,0.687,0.641,��,2.0,��
2020/08/11,17:10,0.691,0.991,0.624,1.188,0.868,0.399,0.684,0.641,��,1.7,��
2020/08/11,17:20,0.691,0.993,0.624,1.187,0.871,0.398,0.683,0.641,��,1.7,��
2020/08/11,17:30,0.689,0.991,0.623,1.189,0.868,0.398,0.683,0.641,��,1.9,��
2020/08/11,17:40,0.690,0.989,0.621,1.186,0.868,0.397,0.684,0.642,��,1.5,��
2020/08/11,17:50,0.688,0.991,0.621,1.190,0.869,0.399,0.684,0.640,��,1.2,��
2020/08/11,18:00,0.688,0.990,0.620,1.187,0.867,0.400,0.684,0.640,��,1.1,��
2020/08/11,18:10,0.688,0.992,0.620,1.187,0.867,0.397,0.685,0.641,�쐼,1.1,��
2020/08/11,18:20,0.689,0.990,0.622,1.186,0.868,0.398,0.683,0.642,���k��,1.5,��
2020/08/11,18:30,0.688,0.988,0.620,1.186,0.868,0.397,0.685,0.642,�k��,2.0,��
2020/08/11,18:40,0.690,0.988,0.621,1.188,0.869,0.397,0.685,0.642,�k��,2.0,��
2020/08/11,18:50,0.689,0.989,0.619,1.188,0.866,0.396,0.685,0.641,�k��,2.0,��
2020/08/11,19:00,0.686,0.991,0.620,1.188,0.868,0.396,0.685,0.639,�k��,2.5,��
2020/08/11,19:10,0.688,0.993,0.619,1.185,0.868,0.397,0.683,0.641,�k��,4.0,��
2020/08/11,19:20,0.687,0.990,0.621,1.187,0.869,0.396,0.683,0.641,�k�k��,4.5,��
2020/08/11,19:30,0.690,0.990,0.620,1.186,0.867,0.398,0.684,0.641,�k�k��,3.8,��
2020/08/11,19:40,0.689,0.993,0.621,1.186,0.867,0.398,0.683,0.641,�k�k��,3.1,��
2020/08/11,19:50,0.688,0.991,0.621,1.187,0.868,0.398,0.683,0.642,�k��,2.0,��
2020/08/11,20:00,0.688,0.991,0.621,1.188,0.869,0.397,0.683,0.640,�k�k��,3.0,��
2020/08/11,20:10,0.688,0.990,0.622,1.188,0.866,0.397,0.682,0.640,�k,2.8,��
2020/08/11,20:20,0.689,0.989,0.620,1.188,0.869,0.397,0.684,0.640,�k�k��,1.5,��
2020/08/11,20:30,0.687,0.991,0.622,1.190,0.869,0.396,0.683,0.640,���k��,0.9,��
2020/08/11,20:40,0.687,0.990,0.622,1.190,0.866,0.398,0.684,0.641,�k��,0.9,��
2020/08/11,20:50,0.688,0.990,0.620,1.187,0.869,0.398,0.684,0.641,���k��,0.9,��
2020/08/11,21:00,0.687,0.991,0.622,1.190,0.866,0.396,0.684,0.639,��,1.1,��
2020/08/11,21:10,0.688,0.988,0.623,1.188,0.866,0.399,0.683,0.641,��,1.4,��
2020/08/11,21:20,0.688,0.991,0.622,1.187,0.868,0.398,0.685,0.641,���k��,1.2,��
2020/08/11,21:30,0.690,0.990,0.620,1.186,0.867,0.396,0.683,0.641,��,1.7,��
2020/08/11,21:40,0.689,0.990,0.620,1.188,0.867,0.398,0.686,0.641,���k��,2.0,��
2020/08/11,21:50,0.688,0.992,0.620,1.187,0.866,0.397,0.683,0.639,���k��,2.5,��
2020/08/11,22:00,0.686,0.991,0.621,1.188,0.868,0.397,0.685,0.642,���k��,2.2,��
2020/08/11,22:10,0.688,0.989,0.619,1.189,0.868,0.398,0.685,0.642,�k��,1.9,��
2020/08/11,22:20,0.691,0.989,0.621,1.187,0.869,0.397,0.684,0.641,���k��,1.9,��
2020/08/11,22:30,0.690,0.990,0.621,1.189,0.867,0.398,0.684,0.641,�k��,2.0,��
2020/08/11,22:40,0.689,0.989,0.622,1.188,0.869,0.398,0.683,0.640,�k��,1.7,��
2020/08/11,22:50,0.689,0.991,0.621,1.187,0.870,0.398,0.685,0.639,���k��,1.5,��
2020/08/11,23:00,0.689,0.990,0.623,1.187,0.869,0.400,0.685,0.640,�k��,1.7,��
2020/08/11,23:10,0.688,0.990,0.622,1.188,0.869,0.398,0.685,0.641,�k��,1.5,��
2020/08/11,23:20,0.687,0.992,0.623,1.189,0.867,0.399,0.683,0.641,�k��,1.2,��
2020/08/11,23:30,0.688,0.992,0.624,1.188,0.869,0.399,0.685,0.640,�k��,1.7,��
2020/08/11,23:40,0.688,0.992,0.622,1.190,0.867,0.398,0.685,0.639,�k��,2.3,��
2020/08/11,23:50,0.690,0.991,0.622,1.189,0.869,0.396,0.684,0.640,�k��,2.8,��
